Regional Weather Roundup
Issued by NWS

Home | Current Version | Previous Version | Graphics & Text | Print | Product List | Glossary On
Versions: 1 2 3 4 5 6 7 8 9 10 11 12 13 14 15 16 17 18 19 20 21 22 23 24 25 26 27 28 29 30 31 32 33 34 35 36 37 38 39 40 41 42 43 44 45 46 47 48 49 50
000
ASUS43 KFSD 270002
RWRSD

WEATHER ROUNDUP FOR SOUTH DAKOTA
NATIONAL WEATHER SERVICE SIOUX FALLS SD
600 PM CST WED NOV 26 2014

NOTE: "FAIR" INDICATES FEW OR NO CLOUDS BELOW 12,000 FEET WITH NO
SIGNIFICANT WEATHER AND/OR OBSTRUCTIONS TO VISIBILITY.


SDZ001>005-009-010-012>017-270100-
NORTHWEST AND NORTH CENTRAL SOUTH DAKOTA

CITY           SKY/WX    TMP DP  RH WIND       PRES   REMARKS
BUFFALO          N/A     21  16  81 E9        30.22R WCI  11
FAITH            N/A     18  14  84 E12       30.32R WCI   5
MOBRIDGE       CLOUDY    12   6  77 NE3       30.38R
$$

SDZ012>016-024>037-041>051-057-063-072>074-270100-
SOUTHWEST AND SOUTH CENTRAL SOUTH DAKOTA

CITY           SKY/WX    TMP DP  RH WIND       PRES   REMARKS
RAPID CTY ARPT CLOUDY    30  24  78 CALM      30.26S
PIERRE         CLOUDY    17   9  70 NE10      30.40R WCI   5
CUSTER         CLOUDY    24  20  84 W5        30.16R WCI  18
ELLSWORTH AFB  MIX PCPN  30  25  83 E1        30.26
PHILIP         MOCLDY    29  20  69 CALM      30.32R
PINE RIDGE     CLOUDY    30  23  75 CALM      30.27R
WINNER         MOCLDY    22  12  65 NE8       30.36R WCI  12
$$

SDZ004>011-016>023-039-040-270100-
NORTHEAST SOUTH DAKOTA

CITY           SKY/WX    TMP DP  RH WIND       PRES   REMARKS
ABERDEEN       CLOUDY     6  -2  69 N8        30.47R WCI  -7
WATERTOWN      CLOUDY     6  -2  69 N12       30.37R WCI  -9
SISSETON         N/A      3  -3  76 N13       30.45R WCI -14
$$

SDZ017-020-022-023-036>040-048>070-270100-
SOUTHEAST SOUTH DAKOTA

CITY           SKY/WX    TMP DP  RH WIND       PRES   REMARKS
SIOUX FALLS    CLOUDY    14   8  77 NW10      30.36R WCI   1
HURON          CLOUDY    10   0  63 N10       30.45R WCI  -4
MITCHELL       CLOUDY    13   5  70 N15       30.44R WCI  -3
YANKTON        PTCLDY    14   9  79 NW12      30.42R WCI   0
$$

ABBREVIATIONS USED IN REMARKS
   TC - TEMPERATURE IN CELSIUS
  WCI - WIND CHILL INDEX
   HX - HEAT INDEX
  VSB - VISIBILITY



USA.gov is the U.S. government's official web portal to all federal, state and local government web resources and services.